[[{"header":{"parameterUnit":"m.s-1","parameterCategory":1,"la1":30.2991,"la2":30.254,"lo1":-89.0895,"lo2":-89.0444,"dy":0.0017,"dx":0.0017,"nx":28,"ny":28,"refTime":"2024-06-14T09:00:00:Z","depth":0,"parameterNumber":2,"parameterNumberName":"U-component_of_WINDS"},"data":[0,0,0,0,0,0,0,0,0,0,0,0,0,0,0,0,0,0,0,0,0,0,0,0,0,0,0,0,0,0,0,0,0,0,0,0,0,0,0,0,0,0,0,0,0,0,0,0,0,0,0,0,0,0,0,0,0,0,-2.1594,-2.1593,0,-2.148,-2.1479,-2.1477,-2.1439,-2.144,-2.144,-2.1441,-2.1325,-2.1321,-2.1318,0,0,0,0,0,0,0,0,0,0,0,0,0,-2.1781,-2.1778,-2.1594,-2.1592,-2.1591,-2.148,-2.1479,-2.1477,-2.1439,-2.144,-2.1441,-2.1441,-2.1326,-2.1322,-2.1317,0,0,0,0,0,0,0,0,0,0,0,0,0,-2.1687,-2.1777,-2.1594,-2.1559,-2.1555,-2.148,-2.1479,-2.1477,-2.1439,-2.144,-2.1441,-2.1441,-2.1327,-2.1322,-2.1317,-2.127,0,0,-2.1301,-2.1298,0,0,0,0,0,0,0,0,-2.1692,-2.168,-2.1565,-2.1561,-2.1556,-2.1475,-2.1502,-2.1407,-2.1439,-2.1483,-2.1441,-2.1442,-2.1374,-2.1365,-2.1342,-2.1264,-2.1259,-2.13,-2.1297,-2.1295,-2.1293,0,0,0,0,0,0,0,-2.1699,-2.1685,-2.1549,-2.1564,-2.1558,-2.155,-2.1537,-2.1484,-2.1426,-2.1479,-2.1476,-2.1463,-2.1372,-2.1347,-2.1339,-2.1257,-2.13,-2.1295,-2.1292,-2.129,-2.1138,-2.1137,0,0,0,0,0,0,-2.1711,-2.169,-2.1552,-2.1545,-2.1627,-2.1546,-2.1531,-2.15,-2.1426,-2.1416,-2.1463,-2.1462,-2.1356,-2.1345,-2.1335,-2.1276,-2.1295,-2.129,-2.1287,-2.1139,-2.1138,-2.1137,0,0,0,0,0,0,-2.1715,-2.1699,-2.1557,-2.1617,-2.1598,-2.1542,-2.1507,-2.1497,-2.1473,-2.1414,-2.1404,-2.1448,-2.1356,-2.1342,-2.1287,-2.1271,-2.1287,-2.1282,-2.114,-2.1139,-2.1137,-2.1157,0,0,0,0,0,0,-2.1721,-2.1701,-2.1681,-2.1617,-2.1595,-2.151,-2.1506,-2.1495,-2.1464,-2.1462,-2.1397,-2.1388,-2.1356,-2.1295,-2.1281,-2.1264,-2.1278,-2.1141,-2.1139,-2.1138,-2.1158,-2.1157,-2.1156,0,0,0,0,0,-2.1727,-2.1691,-2.168,-2.1664,-2.157,-2.1509,-2.1497,-2.146,-2.1463,-2.1443,-2.1406,-2.139,-2.1276,-2.1289,-2.1274,-2.1255,-2.1142,-2.114,-2.1138,-2.1158,-2.1157,-2.1156,0,0,0,0,0,0,-2.1754,-2.1682,-2.1669,-2.1611,-2.1567,-2.1503,-2.1477,-2.146,-2.1414,-2.1414,-2.1372,-2.1357,-2.1306,-2.1275,-2.1292,-2.1207,-2.1208,-2.1203,-2.1229,-2.1227,-2.1226,-2.1235,-2.1274,0,0,0,0,0,-2.1754,-2.171,-2.1649,-2.1603,-2.1582,-2.1534,-2.1506,-2.1482,-2.1434,-2.1415,-2.1374,-2.1329,-2.1283,-2.1253,-2.1208,-2.1154,-2.114,-2.1134,-2.1133,-2.1132,-2.1128,-2.11,-2.1096,-2.1131,-2.1131,-2.1131,0,0,-2.1751,-2.1706,-2.1681,-2.1608,-2.1571,-2.1528,-2.1518,-2.1472,-2.144,-2.1408,-2.1354,-2.1322,-2.1269,-2.1215,-2.1189,-2.1187,-2.1116,-2.113,-2.113,-2.1126,-2.1097,-2.1094,-2.1091,-2.1129,-2.113,-2.113,0,0,-2.1725,-2.1686,-2.1644,-2.1608,-2.1553,-2.1521,-2.1512,-2.1451,-2.1429,-2.1374,-2.135,-2.1312,-2.1233,-2.1197,-2.1168,-2.1132,-2.1116,-2.1119,-2.1114,-2.1087,-2.1084,-2.1082,-2.107,-2.1066,-2.1115,-2.1115,-2.1115,0,-2.1729,-2.1662,-2.1625,-2.1581,-2.155,-2.1521,-2.148,-2.1447,-2.1379,-2.1359,-2.1359,-2.1262,-2.1224,-2.1162,-2.1153,-2.1131,-2.1119,-2.1125,-2.1088,-2.1085,-2.1082,-2.107,-2.1066,-2.1116,-2.1116,-2.1116,-2.1116,0,-2.167,-2.1625,-2.1598,-2.1535,-2.1501,-2.1459,-2.1417,-2.1387,-2.1368,-2.1337,-2.1282,-2.1236,-2.1182,-2.1166,-2.1145,-2.1101,-2.1103,-2.1096,-2.1096,-2.108,-2.1068,-2.1063,-2.1117,-2.1117,-2.1117,-2.1116,0,0,-2.1655,-2.1574,-2.1565,-2.1537,-2.1475,-2.144,-2.1397,-2.1344,-2.1321,-2.1276,-2.124,-2.1176,-2.117,-2.1138,-2.1114,-2.109,-2.1066,-2.1086,-2.1084,-2.1084,-2.1017,-2.1023,-2.1018,-2.1056,-2.1055,-2.1054,-2.1022,0,-2.1621,-2.1543,-2.151,-2.1448,-2.1407,-2.138,-2.1343,-2.1302,-2.1273,-2.1235,-2.1203,-2.1159,-2.1153,-2.1134,-2.1109,-2.1074,-2.1052,-2.1076,-2.1023,-2.1021,-2.1036,-2.1011,-2.1016,-2.0988,-2.1017,-2.1016,-2.1015,0,-2.157,-2.1526,-2.146,-2.1406,-2.1387,-2.1355,-2.1305,-2.1268,-2.1222,-2.1203,-2.1169,-2.1147,-2.1103,-2.1107,-2.1046,-2.1064,-2.104,-2.102,-2.1018,-2.1012,-2.1017,-2.1004,-2.0978,-2.0974,-2.1008,-2.1008,-2.1009,0,-2.1567,-2.1491,-2.1442,-2.1419,-2.1354,-2.1332,-2.1305,-2.1259,-2.1231,-2.1188,-2.1169,-2.1122,-2.1096,-2.1061,-2.1027,-2.1033,-2.0971,-2.0972,-2.0954,-2.0955,-2.0941,-2.0943,-2.0911,-2.0927,-2.0927,-2.0927,-2.0927,0,-2.1532,-2.1493,-2.144,-2.141,-2.1366,-2.133,-2.1288,-2.1258,-2.1219,-2.1184,-2.1158,-2.1126,-2.1083,-2.1046,-2.102,-2.0975,-2.0963,-2.0947,-2.0941,-2.0949,-2.0951,-2.0933,-2.0934,-2.0926,-2.0926,-2.0926,-2.0926,0,-2.152,-2.1483,-2.1429,-2.1373,-2.1358,-2.1328,-2.1281,-2.1251,-2.1222,-2.1178,-2.1166,-2.112,-2.1075,-2.1039,-2.098,-2.0962,-2.0916,-2.0908,-2.0931,-2.0928,-2.0913,-2.0915,-2.0868,-2.0861,-2.0881,-2.0881,-2.0881,0,-2.15,-2.1469,-2.1411,-2.1386,-2.1358,-2.1318,-2.1289,-2.1253,-2.1225,-2.1172,-2.1149,-2.1103,-2.1063,-2.0993,-2.0956,-2.0911,-2.0902,-2.0889,-2.0895,-2.0906,-2.0903,-2.0905,-2.0903,-2.0888,-2.0888,-2.0888,-2.0888,0,-2.1469,-2.1453,-2.1412,-2.1366,-2.1333,-2.1295,-2.1256,-2.1237,-2.1195,-2.1164,-2.1118,-2.1088,-2.1029,-2.0984,-2.0936,-2.0908,-2.0892,-2.0887,-2.0881,-2.0889,-2.0904,-2.0897,-2.093,-2.0888,-2.0888,-2.0888,-2.0888,-2.0888,-2.1452,-2.1425,-2.138,-2.1337,-2.1304,-2.1269,-2.124,-2.1208,-2.1169,-2.1118,-2.11,-2.1053,-2.1011,-2.0945,-2.0918,-2.0881,-2.088,-2.087,-2.0868,-2.0866,-2.0868,-2.091,-2.0873,-2.0873,-2.0872,-2.0872,-2.0872,0,-2.142,-2.1391,-2.1352,-2.1299,-2.1265,-2.1254,-2.1211,-2.1184,-2.1143,-2.1105,-2.1068,-2.1016,-2.0973,-2.0933,-2.0888,-2.0867,-2.0859,-2.0857,-2.0858,-2.0852,-2.0871,-2.0882,-2.0865,-2.0865,-2.0865,-2.0865,-2.0865,-2.0865,-2.14,-2.1353,-2.1333,-2.1271,-2.1242,-2.1196,-2.1173,-2.1141,-2.1111,-2.1055,-2.1019,-2.0993,-2.0955,-2.0908,-2.0868,-2.0858,-2.0843,-2.0843,-2.0831,-2.0849,-2.0851,-2.0852,-2.0861,-2.084,-2.084,-2.0814,-2.0814,-2.0814]},{"header":{"parameterUnit":"m.s-1","parameterCategory":1,"la1":30.2991,"la2":30.254,"lo1":-89.0895,"lo2":-89.0444,"dy":0.0017,"dx":0.0017,"nx":28,"ny":28,"refTime":"2024-06-14T09:00:00:Z","depth":0,"parameterNumber":3,"parameterNumberName":"V-component_of_WINDS"},"data":[0,0,0,0,0,0,0,0,0,0,0,0,0,0,0,0,0,0,0,0,0,0,0,0,0,0,0,0,0,0,0,0,0,0,0,0,0,0,0,0,0,0,0,0,0,0,0,0,0,0,0,0,0,0,0,0,0,0,2.0151,2.0151,0,2.0134,2.0133,2.0133,2.0175,2.0177,2.0178,2.0179,2.0156,2.0154,2.0152,0,0,0,0,0,0,0,0,0,0,0,0,0,2.0215,2.0214,2.0151,2.0151,2.0151,2.0134,2.0133,2.0133,2.0175,2.0177,2.0178,2.018,2.0157,2.0154,2.0152,0,0,0,0,0,0,0,0,0,0,0,0,0,2.0191,2.0213,2.0151,2.017,2.0171,2.0134,2.0133,2.0133,2.0175,2.0177,2.0179,2.0181,2.0157,2.0155,2.0152,2.0094,0,0,2.0143,2.0142,0,0,0,0,0,0,0,0,2.0193,2.0189,2.0167,2.0168,2.017,2.0159,2.0148,2.012,2.0174,2.0173,2.0179,2.0182,2.0155,2.0152,2.0145,2.0093,2.0092,2.0143,2.0141,2.014,2.0139,0,0,0,0,0,0,0,2.0194,2.019,2.0144,2.0167,2.0168,2.0177,2.0176,2.0143,2.0153,2.0173,2.0177,2.0174,2.0156,2.0147,2.0144,2.0092,2.0143,2.0141,2.0139,2.0138,1.9989,1.9987,0,0,0,0,0,0,2.0194,2.0191,2.0145,2.0143,2.0187,2.0174,2.0173,2.016,2.0153,2.0154,2.0172,2.0176,2.0151,2.0148,2.0144,2.0073,2.014,2.0137,2.0136,1.9992,1.9989,1.9987,0,0,0,0,0,0,2.0196,2.019,2.0145,2.0168,2.0163,2.0171,2.0156,2.0159,2.015,2.0153,2.0154,2.0162,2.0153,2.0148,2.0106,2.0073,2.0136,2.0134,1.9994,1.9991,1.9988,1.9933,0,0,0,0,0,0,2.0197,2.019,2.0169,2.0167,2.0162,2.0109,2.0154,2.0157,2.0146,2.015,2.0143,2.0144,2.0154,2.011,2.0103,2.007,2.0131,1.9997,1.9993,1.9989,1.9938,1.9929,1.9921,0,0,0,0,0,2.0199,2.0154,2.0168,2.0162,2.0136,2.0107,2.0104,2.0118,2.0143,2.0121,2.0123,2.0144,2.0079,2.0105,2.0098,2.0064,1.9999,1.9994,1.9989,1.9942,1.9931,1.9921,0,0,0,0,0,0,2.0149,2.0154,2.0169,2.0122,2.0114,2.0114,2.0087,2.0105,2.0088,2.0093,2.011,2.0108,2.0062,2.006,2.0089,2.0007,2.0043,2.0036,2.001,1.9999,1.999,1.999,2.0129,0,0,0,0,0,2.0133,2.0111,2.0116,2.0073,2.0069,2.0079,2.0067,2.0078,2.007,2.0066,2.0065,2.0054,2.0031,2.0015,1.9995,1.9939,1.9937,1.9912,1.9904,1.9896,1.9889,1.9857,1.9845,1.997,1.997,1.997,0,0,2.0098,2.0098,2.0083,2.0063,2.0058,2.0033,2.0075,2.0047,2.0027,2.0061,2.0021,2.002,2.0009,1.996,1.9938,1.9956,1.9855,1.989,1.9884,1.9881,1.9851,1.9839,1.9828,1.9967,1.9967,1.9968,0,0,2.0022,2.0021,1.9985,1.998,1.9972,1.998,1.9971,1.9969,1.9969,1.9931,1.9955,1.9932,1.9892,1.9883,1.9873,1.9794,1.9812,1.9787,1.974,1.9709,1.9699,1.969,1.9659,1.9648,1.9781,1.9781,1.9781,0,1.9979,1.9943,1.9963,1.9933,1.9923,1.9955,1.9917,1.991,1.9896,1.9887,1.9909,1.9859,1.9855,1.9802,1.9783,1.9775,1.9764,1.9786,1.9699,1.969,1.9682,1.9653,1.9641,1.9778,1.9778,1.9778,1.9779,0,1.989,1.9865,1.9836,1.9823,1.981,1.9776,1.9789,1.9773,1.9787,1.9791,1.975,1.9746,1.9724,1.9713,1.9725,1.9662,1.9673,1.9697,1.9733,1.9667,1.9639,1.9628,1.9773,1.9774,1.9775,1.9776,0,0,1.9778,1.9778,1.9766,1.976,1.9756,1.9735,1.9703,1.9683,1.9668,1.9658,1.9628,1.9595,1.9617,1.9605,1.9617,1.959,1.9525,1.9617,1.9617,1.9597,1.9451,1.9431,1.9418,1.9538,1.9536,1.9535,1.9451,0,1.97,1.9645,1.9662,1.9606,1.9581,1.9612,1.9583,1.9576,1.9579,1.9558,1.9562,1.9536,1.9569,1.9562,1.9537,1.9538,1.9495,1.9545,1.9508,1.9506,1.9506,1.9404,1.9382,1.9304,1.9441,1.9439,1.9438,0,1.9601,1.9588,1.9529,1.9528,1.9518,1.9492,1.9475,1.9455,1.9447,1.9452,1.944,1.9457,1.9423,1.9462,1.9413,1.9446,1.9433,1.9431,1.9429,1.9422,1.9465,1.9391,1.9279,1.9266,1.9421,1.9423,1.9424,0,1.9521,1.9489,1.945,1.9444,1.9442,1.9423,1.9421,1.9415,1.9402,1.9387,1.9378,1.9359,1.9347,1.9331,1.9342,1.937,1.929,1.9331,1.929,1.9289,1.9268,1.9269,1.9149,1.9266,1.9266,1.9266,1.9267,0,1.943,1.9392,1.9414,1.9389,1.9347,1.9367,1.9324,1.9326,1.932,1.9295,1.9321,1.9296,1.9314,1.929,1.9299,1.9255,1.9251,1.9251,1.9253,1.9246,1.9246,1.9235,1.9239,1.9263,1.9264,1.9265,1.9265,0,1.9332,1.9346,1.9304,1.9307,1.9306,1.9275,1.9276,1.9252,1.9259,1.9226,1.9219,1.9228,1.9201,1.9212,1.9183,1.9189,1.9132,1.9143,1.9135,1.9136,1.9093,1.9096,1.8959,1.894,1.9073,1.9072,1.9071,0,1.9271,1.9243,1.9243,1.9228,1.9225,1.9202,1.9189,1.9208,1.9193,1.9182,1.9159,1.9135,1.9116,1.9072,1.9074,1.9052,1.906,1.9014,1.9057,1.905,1.9055,1.9055,1.9051,1.9004,1.9002,1.9001,1.9,0,1.916,1.9169,1.915,1.9134,1.9118,1.9106,1.9095,1.9082,1.9101,1.9082,1.9056,1.9042,1.9013,1.8988,1.8968,1.8964,1.8983,1.8987,1.8976,1.8967,1.8962,1.896,1.9107,1.8989,1.899,1.8991,1.8992,1.8992,1.9077,1.9052,1.9048,1.9026,1.9021,1.9011,1.8988,1.8993,1.8972,1.8951,1.8964,1.8932,1.8924,1.89,1.8893,1.8868,1.8885,1.887,1.8865,1.886,1.8853,1.897,1.8865,1.8865,1.8865,1.8866,1.8866,0,1.8964,1.8964,1.8944,1.8929,1.8911,1.8936,1.8925,1.8908,1.8881,1.8873,1.8855,1.8823,1.8799,1.8801,1.8778,1.8757,1.8765,1.875,1.8749,1.8747,1.884,1.885,1.8743,1.8743,1.8743,1.8743,1.8743,1.8743,1.8903,1.8862,1.887,1.8827,1.8826,1.8797,1.8789,1.8779,1.8772,1.8737,1.8718,1.872,1.8715,1.8692,1.867,1.8671,1.866,1.864,1.8644,1.8729,1.8741,1.8753,1.8762,1.8639,1.8639,1.8554,1.8553,1.8552]}]]